Year,Month,Day,Hour,Minute,Value (Times are PST for temperature in C)
2017,07,15,00,00,18.00
2017,07,15,00,01,18.00
2017,07,15,00,02,18.00
2017,07,15,00,03,18.00
2017,07,15,00,04,18.00
2017,07,15,00,05,18.00
2017,07,15,00,06,18.00
2017,07,15,00,07,18.00
2017,07,15,00,08,18.00
2017,07,15,00,09,18.00
2017,07,15,00,10,18.00
2017,07,15,00,11,18.00
2017,07,15,00,12,18.00
2017,07,15,00,13,18.00
2017,07,15,00,14,17.90
2017,07,15,00,15,17.90
2017,07,15,00,16,17.90
2017,07,15,00,17,17.90
2017,07,15,00,18,17.80
2017,07,15,00,19,17.80
2017,07,15,00,20,17.80
2017,07,15,00,21,17.80
2017,07,15,00,22,17.80
2017,07,15,00,23,17.80
2017,07,15,00,24,17.80
2017,07,15,00,25,17.80
2017,07,15,00,26,17.80
2017,07,15,00,27,17.70
2017,07,15,00,28,17.70
2017,07,15,00,29,17.70
2017,07,15,00,30,17.70
2017,07,15,00,31,17.70
2017,07,15,00,32,17.70
2017,07,15,00,33,17.60
2017,07,15,00,34,17.60
2017,07,15,00,35,17.60
2017,07,15,00,36,17.60
2017,07,15,00,37,17.60
2017,07,15,00,38,17.60
2017,07,15,00,39,17.60
2017,07,15,00,40,17.60
2017,07,15,00,41,17.60
2017,07,15,00,42,17.50
2017,07,15,00,43,17.50
2017,07,15,00,44,17.50
2017,07,15,00,45,17.50
2017,07,15,00,46,17.40
2017,07,15,00,47,17.40
2017,07,15,00,48,17.40
2017,07,15,00,49,17.40
2017,07,15,00,50,17.40
2017,07,15,00,51,17.30
2017,07,15,00,52,17.30
2017,07,15,00,53,17.30
2017,07,15,00,54,17.30
2017,07,15,00,55,17.30
2017,07,15,00,56,17.20
2017,07,15,00,57,17.20
2017,07,15,00,58,17.20
2017,07,15,00,59,17.20
2017,07,15,01,00,17.20
2017,07,15,01,01,17.20
2017,07,15,01,02,17.20
2017,07,15,01,03,17.20
2017,07,15,01,04,17.20
2017,07,15,01,05,17.10
2017,07,15,01,06,17.10
2017,07,15,01,07,17.10
2017,07,15,01,08,17.10
2017,07,15,01,09,17.00
2017,07,15,01,10,17.00
2017,07,15,01,11,17.00
2017,07,15,01,12,17.00
2017,07,15,01,13,17.00
2017,07,15,01,14,16.90
2017,07,15,01,15,16.90
2017,07,15,01,16,16.90
2017,07,15,01,17,16.90
2017,07,15,01,18,16.90
2017,07,15,01,19,16.90
2017,07,15,01,20,16.90
2017,07,15,01,21,16.80
2017,07,15,01,22,16.80
2017,07,15,01,23,16.80
2017,07,15,01,24,16.80
2017,07,15,01,25,16.80
2017,07,15,01,26,16.80
2017,07,15,01,27,16.80
2017,07,15,01,28,16.70
2017,07,15,01,29,16.70
2017,07,15,01,30,16.70
2017,07,15,01,31,16.70
2017,07,15,01,32,16.70
2017,07,15,01,33,16.70
2017,07,15,01,34,16.70
2017,07,15,01,35,16.70
2017,07,15,01,36,16.70
2017,07,15,01,37,16.70
2017,07,15,01,38,16.60
2017,07,15,01,39,16.60
2017,07,15,01,40,16.60
2017,07,15,01,41,16.60
2017,07,15,01,42,16.60
2017,07,15,01,43,16.60
2017,07,15,01,44,16.60
2017,07,15,01,45,16.60
2017,07,15,01,46,16.60
2017,07,15,01,47,16.60
2017,07,15,01,48,16.60
2017,07,15,01,49,16.60
2017,07,15,01,50,16.60
2017,07,15,01,51,16.60
2017,07,15,01,52,16.60
2017,07,15,01,53,16.60
2017,07,15,01,54,16.60
2017,07,15,01,55,16.50
2017,07,15,01,56,16.50
2017,07,15,01,57,16.50
2017,07,15,01,58,16.50
2017,07,15,01,59,16.50
2017,07,15,02,00,16.50
2017,07,15,02,01,16.40
2017,07,15,02,02,16.40
2017,07,15,02,03,16.40
2017,07,15,02,04,16.40
2017,07,15,02,05,16.40
2017,07,15,02,06,16.40
2017,07,15,02,07,16.40
2017,07,15,02,08,16.40
2017,07,15,02,09,16.40
2017,07,15,02,10,16.40
2017,07,15,02,11,16.40
2017,07,15,02,12,16.40
2017,07,15,02,13,16.30
2017,07,15,02,14,16.30
2017,07,15,02,15,16.30
2017,07,15,02,16,16.30
2017,07,15,02,17,16.30
2017,07,15,02,18,16.30
2017,07,15,02,19,16.30
2017,07,15,02,20,16.30
2017,07,15,02,21,16.20
2017,07,15,02,22,16.20
2017,07,15,02,23,16.20
2017,07,15,02,24,16.20
2017,07,15,02,25,16.20
2017,07,15,02,26,16.20
2017,07,15,02,27,16.20
2017,07,15,02,28,16.20
2017,07,15,02,29,16.10
2017,07,15,02,30,16.10
2017,07,15,02,31,16.10
2017,07,15,02,32,16.10
2017,07,15,02,33,16.10
2017,07,15,02,34,16.00
2017,07,15,02,35,16.00
2017,07,15,02,36,16.00
2017,07,15,02,37,16.00
2017,07,15,02,38,16.00
2017,07,15,02,39,16.00
2017,07,15,02,40,15.90
2017,07,15,02,41,15.90
2017,07,15,02,42,15.90
2017,07,15,02,43,15.90
2017,07,15,02,44,15.90
2017,07,15,02,45,15.80
2017,07,15,02,46,15.80
2017,07,15,02,47,15.80
2017,07,15,02,48,15.80
2017,07,15,02,49,15.80
2017,07,15,02,50,15.80
2017,07,15,02,51,15.80
2017,07,15,02,52,15.70
2017,07,15,02,53,15.70
2017,07,15,02,54,15.70
2017,07,15,02,55,15.70
2017,07,15,02,56,15.70
2017,07,15,02,57,15.70
2017,07,15,02,58,15.70
2017,07,15,02,59,15.70
2017,07,15,03,00,15.60
2017,07,15,03,01,15.60
2017,07,15,03,02,15.60
2017,07,15,03,03,15.60
2017,07,15,03,04,15.60
2017,07,15,03,05,15.60
2017,07,15,03,06,15.50
2017,07,15,03,07,15.50
2017,07,15,03,08,15.50
2017,07,15,03,09,15.40
2017,07,15,03,10,15.40
2017,07,15,03,11,15.40
2017,07,15,03,12,15.40
2017,07,15,03,13,15.40
2017,07,15,03,14,15.40
2017,07,15,03,15,15.30
2017,07,15,03,16,15.30
2017,07,15,03,17,15.30
2017,07,15,03,18,15.30
2017,07,15,03,19,15.30
2017,07,15,03,20,15.30
2017,07,15,03,21,15.30
2017,07,15,03,22,15.30
2017,07,15,03,23,15.30
2017,07,15,03,24,15.30
2017,07,15,03,25,15.30
2017,07,15,03,26,15.30
2017,07,15,03,27,15.30
2017,07,15,03,28,15.20
2017,07,15,03,29,15.20
2017,07,15,03,30,15.20
2017,07,15,03,31,15.20
2017,07,15,03,32,15.20
2017,07,15,03,33,15.20
2017,07,15,03,34,15.30
2017,07,15,03,35,15.20
2017,07,15,03,36,15.20
2017,07,15,03,37,15.20
2017,07,15,03,38,15.20
2017,07,15,03,39,15.20
2017,07,15,03,40,15.20
2017,07,15,03,41,15.20
2017,07,15,03,42,15.20
2017,07,15,03,43,15.20
2017,07,15,03,44,15.20
2017,07,15,03,45,15.10
2017,07,15,03,46,15.10
2017,07,15,03,47,15.10
2017,07,15,03,48,15.10
2017,07,15,03,49,15.10
2017,07,15,03,50,15.10
2017,07,15,03,51,15.10
2017,07,15,03,52,15.10
2017,07,15,03,53,15.10
2017,07,15,03,54,15.10
2017,07,15,03,55,15.10
2017,07,15,03,56,15.10
2017,07,15,03,57,15.10
2017,07,15,03,58,15.10
2017,07,15,03,59,15.10
2017,07,15,04,00,15.10
2017,07,15,04,01,15.10
2017,07,15,04,02,15.10
2017,07,15,04,03,15.00
2017,07,15,04,04,15.00
2017,07,15,04,05,15.00
2017,07,15,04,06,15.00
2017,07,15,04,07,15.00
2017,07,15,04,08,15.00
2017,07,15,04,09,15.00
2017,07,15,04,10,14.90
2017,07,15,04,11,14.90
2017,07,15,04,12,14.90
2017,07,15,04,13,14.90
2017,07,15,04,14,14.90
2017,07,15,04,15,14.90
2017,07,15,04,16,14.90
2017,07,15,04,17,14.90
2017,07,15,04,18,14.90
2017,07,15,04,19,14.90
2017,07,15,04,20,14.90
2017,07,15,04,21,14.90
2017,07,15,04,22,14.90
2017,07,15,04,23,14.90
2017,07,15,04,24,14.90
2017,07,15,04,25,14.90
2017,07,15,04,26,14.90
2017,07,15,04,27,14.90
2017,07,15,04,28,14.90
2017,07,15,04,29,14.90
2017,07,15,04,30,14.90
2017,07,15,04,31,14.90
2017,07,15,04,32,14.90
2017,07,15,04,33,14.90
2017,07,15,04,34,14.90
2017,07,15,04,35,14.90
2017,07,15,04,36,14.90
2017,07,15,04,37,14.90
2017,07,15,04,38,14.90
2017,07,15,04,39,14.90
2017,07,15,04,40,14.90
2017,07,15,04,41,14.90
2017,07,15,04,42,14.90
2017,07,15,04,43,14.90
2017,07,15,04,44,14.90
2017,07,15,04,45,14.90
2017,07,15,04,46,14.90
2017,07,15,04,47,14.90
2017,07,15,04,48,14.90
2017,07,15,04,49,14.90
2017,07,15,04,50,14.80
2017,07,15,04,51,14.80
2017,07,15,04,52,14.80
2017,07,15,04,53,14.80
2017,07,15,04,54,14.70
2017,07,15,04,55,14.70
2017,07,15,04,56,14.70
2017,07,15,04,57,14.60
2017,07,15,04,58,14.60
2017,07,15,04,59,14.60
2017,07,15,05,00,14.50
2017,07,15,05,01,14.40
2017,07,15,05,02,14.40
2017,07,15,05,03,14.40
2017,07,15,05,04,14.30
2017,07,15,05,05,14.30
2017,07,15,05,06,14.20
2017,07,15,05,07,14.20
2017,07,15,05,08,14.10
2017,07,15,05,09,14.10
2017,07,15,05,10,14.10
2017,07,15,05,11,14.10
2017,07,15,05,12,14.00
2017,07,15,05,13,14.00
2017,07,15,05,14,14.00
2017,07,15,05,15,13.90
2017,07,15,05,16,13.90
2017,07,15,05,17,13.90
2017,07,15,05,18,13.80
2017,07,15,05,19,13.80
2017,07,15,05,20,13.80
2017,07,15,05,21,13.80
2017,07,15,05,22,13.70
2017,07,15,05,23,13.70
2017,07,15,05,24,13.70
2017,07,15,05,25,13.60
2017,07,15,05,26,13.60
2017,07,15,05,27,13.60
2017,07,15,05,28,13.50
2017,07,15,05,29,13.50
2017,07,15,05,30,13.50
2017,07,15,05,31,13.50
2017,07,15,05,32,13.50
2017,07,15,05,33,13.40
2017,07,15,05,34,13.40
2017,07,15,05,35,13.40
2017,07,15,05,36,13.40
2017,07,15,05,37,13.30
2017,07,15,05,38,13.30
2017,07,15,05,39,13.30
2017,07,15,05,40,13.20
2017,07,15,05,41,13.20
2017,07,15,05,42,13.20
2017,07,15,05,43,13.10
2017,07,15,05,44,13.10
2017,07,15,05,45,13.10
2017,07,15,05,46,13.10
2017,07,15,05,47,13.10
2017,07,15,05,48,13.00
2017,07,15,05,49,13.00
2017,07,15,05,50,13.00
2017,07,15,05,51,12.90
2017,07,15,05,52,12.90
2017,07,15,05,53,13.00
2017,07,15,05,54,13.00
2017,07,15,05,55,13.10
2017,07,15,05,56,13.20
2017,07,15,05,57,13.30
2017,07,15,05,58,13.50
2017,07,15,05,59,13.60
2017,07,15,06,00,13.70
2017,07,15,06,01,13.80
2017,07,15,06,02,13.80
2017,07,15,06,03,13.90
2017,07,15,06,04,14.00
2017,07,15,06,05,14.10
2017,07,15,06,06,14.10
2017,07,15,06,07,14.10
2017,07,15,06,08,14.20
2017,07,15,06,09,14.20
2017,07,15,06,10,14.10
2017,07,15,06,11,14.10
2017,07,15,06,12,14.10
2017,07,15,06,13,14.00
2017,07,15,06,14,14.00
2017,07,15,06,15,13.90
2017,07,15,06,16,13.90
2017,07,15,06,17,13.80
2017,07,15,06,18,13.80
2017,07,15,06,19,13.70
2017,07,15,06,20,13.70
2017,07,15,06,21,13.60
2017,07,15,06,22,13.50
2017,07,15,06,23,13.40
2017,07,15,06,24,13.30
2017,07,15,06,25,13.20
2017,07,15,06,26,13.20
2017,07,15,06,27,13.10
2017,07,15,06,28,13.10
2017,07,15,06,29,13.00
2017,07,15,06,30,13.00
2017,07,15,06,31,12.90
2017,07,15,06,32,12.90
2017,07,15,06,33,12.90
2017,07,15,06,34,12.90
2017,07,15,06,35,12.90
2017,07,15,06,36,12.90
2017,07,15,06,37,13.00
2017,07,15,06,38,13.00
2017,07,15,06,39,13.00
2017,07,15,06,40,13.10
2017,07,15,06,41,13.20
2017,07,15,06,42,13.20
2017,07,15,06,43,13.30
2017,07,15,06,44,13.40
2017,07,15,06,45,13.50
2017,07,15,06,46,13.60
2017,07,15,06,47,13.70
2017,07,15,06,48,13.80
2017,07,15,06,49,14.00
2017,07,15,06,50,14.10
2017,07,15,06,51,14.20
2017,07,15,06,52,14.30
2017,07,15,06,53,14.40
2017,07,15,06,54,14.50
2017,07,15,06,55,14.60
2017,07,15,06,56,14.70
2017,07,15,06,57,14.70
2017,07,15,06,58,14.80
2017,07,15,06,59,14.80
2017,07,15,07,00,14.90
2017,07,15,07,01,14.90
2017,07,15,07,02,14.90
2017,07,15,07,03,15.00
2017,07,15,07,04,15.00
2017,07,15,07,05,15.10
2017,07,15,07,06,15.10
2017,07,15,07,07,15.10
2017,07,15,07,08,15.20
2017,07,15,07,09,15.20
2017,07,15,07,10,15.20
2017,07,15,07,11,15.30
2017,07,15,07,12,15.30
2017,07,15,07,13,15.40
2017,07,15,07,14,15.40
2017,07,15,07,15,15.50
2017,07,15,07,16,15.60
2017,07,15,07,17,15.60
2017,07,15,07,18,15.60
2017,07,15,07,19,15.60
2017,07,15,07,20,15.70
2017,07,15,07,21,15.70
2017,07,15,07,22,15.70
2017,07,15,07,23,15.70
2017,07,15,07,24,15.70
2017,07,15,07,25,15.70
2017,07,15,07,26,15.70
2017,07,15,07,27,15.70
2017,07,15,07,28,15.70
2017,07,15,07,29,15.70
2017,07,15,07,30,15.70
2017,07,15,07,31,15.80
2017,07,15,07,32,15.80
2017,07,15,07,33,15.80
2017,07,15,07,34,15.80
2017,07,15,07,35,15.80
2017,07,15,07,36,15.80
2017,07,15,07,37,15.80
2017,07,15,07,38,15.90
2017,07,15,07,39,15.90
2017,07,15,07,40,15.90
2017,07,15,07,41,16.00
2017,07,15,07,42,16.00
2017,07,15,07,43,16.00
2017,07,15,07,44,16.10
2017,07,15,07,45,16.10
2017,07,15,07,46,16.20
2017,07,15,07,47,16.20
2017,07,15,07,48,16.30
2017,07,15,07,49,16.30
2017,07,15,07,50,16.30
2017,07,15,07,51,16.40
2017,07,15,07,52,16.40
2017,07,15,07,53,16.40
2017,07,15,07,54,16.40
2017,07,15,07,55,16.40
2017,07,15,07,56,16.40
2017,07,15,07,57,16.50
2017,07,15,07,58,16.50
2017,07,15,07,59,16.50
2017,07,15,08,00,16.50
2017,07,15,08,01,16.40
2017,07,15,08,02,16.40
2017,07,15,08,03,16.50
2017,07,15,08,04,16.40
2017,07,15,08,05,16.50
2017,07,15,08,06,16.50
2017,07,15,08,07,16.50
2017,07,15,08,08,16.60
2017,07,15,08,09,16.60
2017,07,15,08,10,16.60
2017,07,15,08,11,16.60
2017,07,15,08,12,16.70
2017,07,15,08,13,16.70
2017,07,15,08,14,16.80
2017,07,15,08,15,16.90
2017,07,15,08,16,16.90
2017,07,15,08,17,17.00
2017,07,15,08,18,17.10
2017,07,15,08,19,17.10
2017,07,15,08,20,17.20
2017,07,15,08,21,17.20
2017,07,15,08,22,17.30
2017,07,15,08,23,17.30
2017,07,15,08,24,17.40
2017,07,15,08,25,17.50
2017,07,15,08,26,17.50
2017,07,15,08,27,17.60
2017,07,15,08,28,17.60
2017,07,15,08,29,17.70
2017,07,15,08,30,17.70
2017,07,15,08,31,17.80
2017,07,15,08,32,17.80
2017,07,15,08,33,17.90
2017,07,15,08,34,17.90
2017,07,15,08,35,18.00
2017,07,15,08,36,18.10
2017,07,15,08,37,18.10
2017,07,15,08,38,18.10
2017,07,15,08,39,18.10
2017,07,15,08,40,18.20
2017,07,15,08,41,18.20
2017,07,15,08,42,18.20
2017,07,15,08,43,18.30
2017,07,15,08,44,18.30
2017,07,15,08,45,18.40
2017,07,15,08,46,18.50
2017,07,15,08,47,18.50
2017,07,15,08,48,18.60
2017,07,15,08,49,18.60
2017,07,15,08,50,18.70
2017,07,15,08,51,18.70
2017,07,15,08,52,18.70
2017,07,15,08,53,18.70
2017,07,15,08,54,18.70
2017,07,15,08,55,18.70
2017,07,15,08,56,18.70
2017,07,15,08,57,18.70
2017,07,15,08,58,18.70
2017,07,15,08,59,18.70
2017,07,15,09,00,18.80
2017,07,15,09,01,18.80
2017,07,15,09,02,18.90
2017,07,15,09,03,18.90
2017,07,15,09,04,19.00
2017,07,15,09,05,19.00
2017,07,15,09,06,19.10
2017,07,15,09,07,19.10
2017,07,15,09,08,19.10
2017,07,15,09,09,19.10
2017,07,15,09,10,19.10
2017,07,15,09,11,19.20
2017,07,15,09,12,19.20
2017,07,15,09,13,19.20
2017,07,15,09,14,19.30
2017,07,15,09,15,19.40
2017,07,15,09,16,19.40
2017,07,15,09,17,19.50
2017,07,15,09,18,19.50
2017,07,15,09,19,19.60
2017,07,15,09,20,19.60
2017,07,15,09,21,19.60
2017,07,15,09,22,19.70
2017,07,15,09,23,19.70
2017,07,15,09,24,19.70
2017,07,15,09,25,19.70
2017,07,15,09,26,19.70
2017,07,15,09,27,19.70
2017,07,15,09,28,19.60
2017,07,15,09,29,19.60
2017,07,15,09,30,19.60
2017,07,15,09,31,19.60
2017,07,15,09,32,19.60
2017,07,15,09,33,19.60
2017,07,15,09,34,19.60
2017,07,15,09,35,19.60
2017,07,15,09,36,19.60
2017,07,15,09,37,19.60
2017,07,15,09,38,19.60
2017,07,15,09,39,19.60
2017,07,15,09,40,19.70
2017,07,15,09,41,19.80
2017,07,15,09,42,19.80
2017,07,15,09,43,19.90
2017,07,15,09,44,19.90
2017,07,15,09,45,20.00
2017,07,15,09,46,20.10
2017,07,15,09,47,20.10
2017,07,15,09,48,20.10
2017,07,15,09,49,20.20
2017,07,15,09,50,20.20
2017,07,15,09,51,20.20
2017,07,15,09,52,20.10
2017,07,15,09,53,20.10
2017,07,15,09,54,20.00
2017,07,15,09,55,20.00
2017,07,15,09,56,19.90
2017,07,15,09,57,19.90
2017,07,15,09,58,19.90
2017,07,15,09,59,19.90
2017,07,15,10,00,19.90
2017,07,15,10,01,19.90
2017,07,15,10,02,19.90
2017,07,15,10,03,19.90
2017,07,15,10,04,19.80
2017,07,15,10,05,19.80
2017,07,15,10,06,19.80
2017,07,15,10,07,19.80
2017,07,15,10,08,19.80
2017,07,15,10,09,19.80
2017,07,15,10,10,19.80
2017,07,15,10,11,19.80
2017,07,15,10,12,19.80
2017,07,15,10,13,19.80
2017,07,15,10,14,19.80
2017,07,15,10,15,19.80
2017,07,15,10,16,19.80
2017,07,15,10,17,19.80
2017,07,15,10,18,19.80
2017,07,15,10,19,19.80
2017,07,15,10,20,19.90
2017,07,15,10,21,19.90
2017,07,15,10,22,20.00
2017,07,15,10,23,20.00
2017,07,15,10,24,20.10
2017,07,15,10,25,20.10
2017,07,15,10,26,20.10
2017,07,15,10,27,20.10
2017,07,15,10,28,20.10
2017,07,15,10,29,20.10
2017,07,15,10,30,20.00
2017,07,15,10,31,20.00
2017,07,15,10,32,19.90
2017,07,15,10,33,19.90
2017,07,15,10,34,19.90
2017,07,15,10,35,19.90
2017,07,15,10,36,19.80
2017,07,15,10,37,19.80
2017,07,15,10,38,19.80
2017,07,15,10,39,19.70
2017,07,15,10,40,19.70
2017,07,15,10,41,19.70
2017,07,15,10,42,19.70
2017,07,15,10,43,19.70
2017,07,15,10,44,19.60
2017,07,15,10,45,19.60
2017,07,15,10,46,19.60
2017,07,15,10,47,19.60
2017,07,15,10,48,19.60
2017,07,15,10,49,19.60
2017,07,15,10,50,19.60
2017,07,15,10,51,19.60
2017,07,15,10,52,19.60
2017,07,15,10,53,19.60
2017,07,15,10,54,19.70
2017,07,15,10,55,19.70
2017,07,15,10,56,19.70
2017,07,15,10,57,19.70
2017,07,15,10,58,19.80
2017,07,15,10,59,19.80
2017,07,15,11,00,19.90
2017,07,15,11,01,19.90
2017,07,15,11,02,20.00
2017,07,15,11,03,20.00
2017,07,15,11,04,20.10
2017,07,15,11,05,20.20
2017,07,15,11,06,20.20
2017,07,15,11,07,20.20
2017,07,15,11,08,20.20
2017,07,15,11,09,20.20
2017,07,15,11,10,20.20
2017,07,15,11,11,20.20
2017,07,15,11,12,20.20
2017,07,15,11,13,20.20
2017,07,15,11,14,20.20
2017,07,15,11,15,20.20
2017,07,15,11,16,20.20
2017,07,15,11,17,20.30
2017,07,15,11,18,20.30
2017,07,15,11,19,20.30
2017,07,15,11,20,20.40
2017,07,15,11,21,20.40
2017,07,15,11,22,20.40
2017,07,15,11,23,20.40
2017,07,15,11,24,20.40
2017,07,15,11,25,20.40
2017,07,15,11,26,20.40
2017,07,15,11,27,20.50
2017,07,15,11,28,20.50
2017,07,15,11,29,20.60
2017,07,15,11,30,20.60
2017,07,15,11,31,20.60
2017,07,15,11,32,20.60
2017,07,15,11,33,20.60
2017,07,15,11,34,20.60
2017,07,15,11,35,20.60
2017,07,15,11,36,20.60
2017,07,15,11,37,20.60
2017,07,15,11,38,20.60
2017,07,15,11,39,20.60
2017,07,15,11,40,20.60
2017,07,15,11,41,20.60
2017,07,15,11,42,20.60
2017,07,15,11,43,20.60
2017,07,15,11,44,20.60
2017,07,15,11,45,20.60
2017,07,15,11,46,20.60
2017,07,15,11,47,20.70
2017,07,15,11,48,20.80
2017,07,15,11,49,20.90
2017,07,15,11,50,21.00
2017,07,15,11,51,21.10
2017,07,15,11,52,21.20
2017,07,15,11,53,21.30
2017,07,15,11,54,21.30
2017,07,15,11,55,21.40
2017,07,15,11,56,21.40
2017,07,15,11,57,21.30
2017,07,15,11,58,21.30
2017,07,15,11,59,21.20
2017,07,15,12,00,21.20
2017,07,15,12,01,21.10
2017,07,15,12,02,21.10
2017,07,15,12,03,21.10
2017,07,15,12,04,21.00
2017,07,15,12,05,21.00
2017,07,15,12,06,21.00
2017,07,15,12,07,21.00
2017,07,15,12,08,21.10
2017,07,15,12,09,21.10
2017,07,15,12,10,21.10
2017,07,15,12,11,21.10
2017,07,15,12,12,21.10
2017,07,15,12,13,21.10
2017,07,15,12,14,21.00
2017,07,15,12,15,21.00
2017,07,15,12,16,20.90
2017,07,15,12,17,20.90
2017,07,15,12,18,20.90
2017,07,15,12,19,20.90
2017,07,15,12,20,20.90
2017,07,15,12,21,20.90
2017,07,15,12,22,20.90
2017,07,15,12,23,20.90
2017,07,15,12,24,20.90
2017,07,15,12,25,20.90
2017,07,15,12,26,20.90
2017,07,15,12,27,20.90
2017,07,15,12,28,20.90
2017,07,15,12,29,20.90
2017,07,15,12,30,20.90
2017,07,15,12,31,21.00
2017,07,15,12,32,21.10
2017,07,15,12,33,21.10
2017,07,15,12,34,21.10
2017,07,15,12,35,21.10
2017,07,15,12,36,21.10
2017,07,15,12,37,21.10
2017,07,15,12,38,21.00
2017,07,15,12,39,20.90
2017,07,15,12,40,20.90
2017,07,15,12,41,20.90
2017,07,15,12,42,20.90
2017,07,15,12,43,20.90
2017,07,15,12,44,20.90
2017,07,15,12,45,20.90
2017,07,15,12,46,20.90
2017,07,15,12,47,20.90
2017,07,15,12,48,20.90
2017,07,15,12,49,20.90
2017,07,15,12,50,20.80
2017,07,15,12,51,20.80
2017,07,15,12,52,20.80
2017,07,15,12,53,20.80
2017,07,15,12,54,20.80
2017,07,15,12,55,20.80
2017,07,15,12,56,20.80
2017,07,15,12,57,20.90
2017,07,15,12,58,20.90
2017,07,15,12,59,20.90
2017,07,15,13,00,20.90
2017,07,15,13,01,20.90
2017,07,15,13,02,20.90
2017,07,15,13,03,20.80
2017,07,15,13,04,20.80
2017,07,15,13,05,20.80
2017,07,15,13,06,20.70
2017,07,15,13,07,20.70
2017,07,15,13,08,20.70
2017,07,15,13,09,20.70
2017,07,15,13,10,20.80
2017,07,15,13,11,20.80
2017,07,15,13,12,20.80
2017,07,15,13,13,20.80
2017,07,15,13,14,20.80
2017,07,15,13,15,20.80
2017,07,15,13,16,20.80
2017,07,15,13,17,20.90
2017,07,15,13,18,20.90
2017,07,15,13,19,21.00
2017,07,15,13,20,21.10
2017,07,15,13,21,21.10
2017,07,15,13,22,21.10
2017,07,15,13,23,21.00
2017,07,15,13,24,21.00
2017,07,15,13,25,20.90
2017,07,15,13,26,20.90
2017,07,15,13,27,20.90
2017,07,15,13,28,20.90
2017,07,15,13,29,21.00
2017,07,15,13,30,21.10
2017,07,15,13,31,21.20
2017,07,15,13,32,21.20
2017,07,15,13,33,21.20
2017,07,15,13,34,21.10
2017,07,15,13,35,21.00
2017,07,15,13,36,20.90
2017,07,15,13,37,20.90
2017,07,15,13,38,20.80
2017,07,15,13,39,20.80
2017,07,15,13,40,20.70
2017,07,15,13,41,20.70
2017,07,15,13,42,20.70
2017,07,15,13,43,20.70
2017,07,15,13,44,20.70
2017,07,15,13,45,20.70
2017,07,15,13,46,20.70
2017,07,15,13,47,20.80
2017,07,15,13,48,20.80
2017,07,15,13,49,20.70
2017,07,15,13,50,20.70
2017,07,15,13,51,20.60
2017,07,15,13,52,20.60
2017,07,15,13,53,20.60
2017,07,15,13,54,20.70
2017,07,15,13,55,20.60
2017,07,15,13,56,20.60
2017,07,15,13,57,20.70
2017,07,15,13,58,20.70
2017,07,15,13,59,20.60
2017,07,15,14,00,20.60
2017,07,15,14,01,20.70
2017,07,15,14,02,20.70
2017,07,15,14,03,20.70
2017,07,15,14,04,20.70
2017,07,15,14,05,20.70
2017,07,15,14,06,20.70
2017,07,15,14,07,20.70
2017,07,15,14,08,20.80
2017,07,15,14,09,20.80
2017,07,15,14,10,20.90
2017,07,15,14,11,20.90
2017,07,15,14,12,20.90
2017,07,15,14,13,20.90
2017,07,15,14,14,20.90
2017,07,15,14,15,20.80
2017,07,15,14,16,20.80
2017,07,15,14,17,20.70
2017,07,15,14,18,20.70
2017,07,15,14,19,20.70
2017,07,15,14,20,20.70
2017,07,15,14,21,20.80
2017,07,15,14,22,20.80
2017,07,15,14,23,20.70
2017,07,15,14,24,20.70
2017,07,15,14,25,20.70
2017,07,15,14,26,20.60
2017,07,15,14,27,20.60
2017,07,15,14,28,20.50
2017,07,15,14,29,20.50
2017,07,15,14,30,20.50
2017,07,15,14,31,20.40
2017,07,15,14,32,20.40
2017,07,15,14,33,20.30
2017,07,15,14,34,20.30
2017,07,15,14,35,20.30
2017,07,15,14,36,20.30
2017,07,15,14,37,20.20
2017,07,15,14,38,20.20
2017,07,15,14,39,20.20
2017,07,15,14,40,20.20
2017,07,15,14,41,20.10
2017,07,15,14,42,20.10
2017,07,15,14,43,20.10
2017,07,15,14,44,20.20
2017,07,15,14,45,20.30
2017,07,15,14,46,20.30
2017,07,15,14,47,20.30
2017,07,15,14,48,20.30
2017,07,15,14,49,20.30
2017,07,15,14,50,20.30
2017,07,15,14,51,20.30
2017,07,15,14,52,20.20
2017,07,15,14,53,20.20
2017,07,15,14,54,20.20
2017,07,15,14,55,20.20
2017,07,15,14,56,20.20
2017,07,15,14,57,20.20
2017,07,15,14,58,20.20
2017,07,15,14,59,20.20
2017,07,15,15,00,20.20
2017,07,15,15,01,20.20
2017,07,15,15,02,20.20
2017,07,15,15,03,20.20
2017,07,15,15,04,20.10
2017,07,15,15,05,20.10
2017,07,15,15,06,20.10
2017,07,15,15,07,20.10
2017,07,15,15,08,20.00
2017,07,15,15,09,20.00
2017,07,15,15,10,20.00
2017,07,15,15,11,20.00
2017,07,15,15,12,20.00
2017,07,15,15,13,20.00
2017,07,15,15,14,20.10
2017,07,15,15,15,20.00
2017,07,15,15,16,20.10
2017,07,15,15,17,20.10
2017,07,15,15,18,20.10
2017,07,15,15,19,20.10
2017,07,15,15,20,20.10
2017,07,15,15,21,20.20
2017,07,15,15,22,20.20
2017,07,15,15,23,20.20
2017,07,15,15,24,20.20
2017,07,15,15,25,20.20
2017,07,15,15,26,20.10
2017,07,15,15,27,20.00
2017,07,15,15,28,20.00
2017,07,15,15,29,20.00
2017,07,15,15,30,20.00
2017,07,15,15,31,20.10
2017,07,15,15,32,20.10
2017,07,15,15,33,20.10
2017,07,15,15,34,20.00
2017,07,15,15,35,20.00
2017,07,15,15,36,20.10
2017,07,15,15,37,20.10
2017,07,15,15,38,20.20
2017,07,15,15,39,20.20
2017,07,15,15,40,20.20
2017,07,15,15,41,20.20
2017,07,15,15,42,20.20
2017,07,15,15,43,20.20
2017,07,15,15,44,20.20
2017,07,15,15,45,20.10
2017,07,15,15,46,20.10
2017,07,15,15,47,20.10
2017,07,15,15,48,20.10
2017,07,15,15,49,20.10
2017,07,15,15,50,20.10
2017,07,15,15,51,20.10
2017,07,15,15,52,20.10
2017,07,15,15,53,20.10
2017,07,15,15,54,20.10
2017,07,15,15,55,20.10
2017,07,15,15,56,20.10
2017,07,15,15,57,20.10
2017,07,15,15,58,20.10
2017,07,15,15,59,20.10
2017,07,15,16,00,20.00
2017,07,15,16,01,20.00
2017,07,15,16,02,20.00
2017,07,15,16,03,20.00
2017,07,15,16,04,20.00
2017,07,15,16,05,19.90
2017,07,15,16,06,19.90
2017,07,15,16,07,19.90
2017,07,15,16,08,19.90
2017,07,15,16,09,19.90
2017,07,15,16,10,19.80
2017,07,15,16,11,19.90
2017,07,15,16,12,19.90
2017,07,15,16,13,20.00
2017,07,15,16,14,20.00
2017,07,15,16,15,20.10
2017,07,15,16,16,20.20
2017,07,15,16,17,20.30
2017,07,15,16,18,20.40
2017,07,15,16,19,20.40
2017,07,15,16,20,20.40
2017,07,15,16,21,20.40
2017,07,15,16,22,20.40
2017,07,15,16,23,20.40
2017,07,15,16,24,20.30
2017,07,15,16,25,20.30
2017,07,15,16,26,20.20
2017,07,15,16,27,20.20
2017,07,15,16,28,20.20
2017,07,15,16,29,20.10
2017,07,15,16,30,20.10
2017,07,15,16,31,20.20
2017,07,15,16,32,20.10
2017,07,15,16,33,20.10
2017,07,15,16,34,20.10
2017,07,15,16,35,20.20
2017,07,15,16,36,20.20
2017,07,15,16,37,20.20
2017,07,15,16,38,20.20
2017,07,15,16,39,20.20
2017,07,15,16,40,20.20
2017,07,15,16,41,20.10
2017,07,15,16,42,20.10
2017,07,15,16,43,20.20
2017,07,15,16,44,20.10
2017,07,15,16,45,20.10
2017,07,15,16,46,20.00
2017,07,15,16,47,20.00
2017,07,15,16,48,20.00
2017,07,15,16,49,19.90
2017,07,15,16,50,19.90
2017,07,15,16,51,19.90
2017,07,15,16,52,19.90
2017,07,15,16,53,19.90
2017,07,15,16,54,19.90
2017,07,15,16,55,19.80
2017,07,15,16,56,19.80
2017,07,15,16,57,19.80
2017,07,15,16,58,19.70
2017,07,15,16,59,19.70
2017,07,15,17,00,19.70
2017,07,15,17,01,19.70
2017,07,15,17,02,19.70
2017,07,15,17,03,19.70
2017,07,15,17,04,19.70
2017,07,15,17,05,19.70
2017,07,15,17,06,19.70
2017,07,15,17,07,19.70
2017,07,15,17,08,19.70
2017,07,15,17,09,19.70
2017,07,15,17,10,19.70
2017,07,15,17,11,19.70
2017,07,15,17,12,19.70
2017,07,15,17,13,19.70
2017,07,15,17,14,19.80
2017,07,15,17,15,19.80
2017,07,15,17,16,19.80
2017,07,15,17,17,19.80
2017,07,15,17,18,19.80
2017,07,15,17,19,19.80